Rome Ciampino, Italy

2:04 PM CET on December 12, 2017 (GMT +0100)
Ciampino

Weather History for LIRA - November, 2013

Change the Weather History Date:

Sunday, November 17, 2013

  Actual Average Record
Temperature  
Mean Temperature 60 °F -  
Max Temperature 66 °F 58 °F 68 °F (2000)
Min Temperature 53 °F 41 °F 37 °F (2007)
Degree Days  
Heating Degree Days 6    
Growing Degree Days 10 (Base 50)    
Moisture  
Dew Point 53 °F    
Average Humidity 83    
Maximum Humidity 94    
Minimum Humidity 64    
Precipitation  
Precipitation 0.00 in 0.16 in - ()
Sea Level Pressure  
Sea Level Pressure 30.09 in    
Wind  
Wind Speed 4 mph ()    
Max Wind Speed 10 mph    
Max Gust Speed 17 mph    
Visibility 6.2 miles    
Events Rain    
Averages and records for this station are not official NWS values.
T = Trace of Precipitation, MM = Missing Value Source: Averaged Metar Reports

Daily Weather History Graph

Daily Weather History Graph

Search for Another Location

Airport or City:

Trip Planner

Search our weather history database for the weather conditions in past years. The results will help you decide how hot, cold, wet, or windy it might be!

Date:

Astronomy

Nov. 17, 2013 Rise Set
Actual Time 7:01 AM CET 4:47 PM CET
Civil Twilight 6:31 AM CET 5:17 PM CET
Nautical Twilight 5:57 AM CET 5:51 PM CET
Astronomical Twilight 5:24 AM CET 6:24 PM CET
Moon 4:52 PM CET (11/17) 6:39 AM CET (11/17)
Length of Visible Light 10h 46m
Length of Day
9h 45m
Full, 100% of the Moon is Illuminated
Nov 17
Full
Nov 17
Full
Nov 25
Last Quarter
Dec 3
New
Dec 9
First Quarter

Hourly Weather History & Observations

Time (CET) Temp. Dew Point Humidity Pressure Visibility Wind Dir Wind Speed Gust Speed Precip Events Conditions
12:15 AM 57.2 °F 50.0 °F 77% 30.06 in 6.2 mi NE 2.3 mph - N/A   Mostly Cloudy
12:45 AM 57.2 °F 50.0 °F 77% 30.09 in 6.2 mi North 2.3 mph - N/A   Mostly Cloudy
1:15 AM 55.4 °F 50.0 °F 82% 30.09 in 6.2 mi ENE 6.9 mph - N/A   Mostly Cloudy
1:45 AM 55.4 °F 50.0 °F 82% 30.09 in 6.2 mi ENE 8.1 mph - N/A   Mostly Cloudy
2:15 AM 57.2 °F 50.0 °F 77% 30.09 in 6.2 mi NE 9.2 mph - N/A   Mostly Cloudy
2:45 AM 57.2 °F 50.0 °F 77% 30.09 in 6.2 mi ENE 9.2 mph - N/A   Mostly Cloudy
3:15 AM 57.2 °F 50.0 °F 77% 30.09 in 6.2 mi NE 6.9 mph - N/A Rain Light Rain
3:45 AM 55.4 °F 51.8 °F 88% 30.09 in 6.2 mi NNE 6.9 mph - N/A Rain Light Rain
4:15 AM 55.4 °F 51.8 °F 88% 30.09 in 6.2 mi NE 4.6 mph - N/A   Mostly Cloudy
4:45 AM 53.6 °F 50.0 °F 88% 30.09 in 6.2 mi North 2.3 mph - N/A   Mostly Cloudy
5:15 AM 55.4 °F 51.8 °F 88% 30.09 in 6.2 mi NE 3.5 mph - N/A   Mostly Cloudy
5:45 AM 55.4 °F 51.8 °F 88% 30.09 in 6.2 mi Calm Calm - N/A   Mostly Cloudy
6:15 AM 55.4 °F 51.8 °F 88% 30.09 in 6.2 mi North 1.2 mph - N/A   Scattered Clouds
6:45 AM 53.6 °F 51.8 °F 94% 30.09 in 6.2 mi North 1.2 mph - N/A   Scattered Clouds
7:15 AM 53.6 °F 50.0 °F 88% 30.09 in 6.2 mi Calm Calm - N/A   Mostly Cloudy
7:45 AM 53.6 °F 51.8 °F 94% 30.09 in 6.2 mi NNW 1.2 mph - N/A   Mostly Cloudy
8:15 AM 55.4 °F 51.8 °F 88% 30.12 in 6.2 mi NNE 1.2 mph - N/A   Scattered Clouds
8:45 AM 55.4 °F 53.6 °F 94% 30.12 in 6.2 mi Calm Calm - N/A   Scattered Clouds
9:15 AM 57.2 °F 53.6 °F 88% 30.12 in 6.2 mi Calm Calm - N/A   Scattered Clouds
9:45 AM 59.0 °F 55.4 °F 88% 30.12 in 6.2 mi North 3.5 mph - N/A   Scattered Clouds
10:15 AM 64.4 °F 55.4 °F 73% 30.12 in 6.2 mi NNW 1.2 mph - N/A   Scattered Clouds
10:45 AM 64.4 °F 53.6 °F 68% 30.12 in 6.2 mi SSE 9.2 mph - N/A   Scattered Clouds
11:15 AM 64.4 °F 53.6 °F 68% 30.12 in 6.2 mi SSE 10.4 mph - N/A   Scattered Clouds
11:45 AM 66.2 °F 53.6 °F 64% 30.12 in 6.2 mi South 10.4 mph - N/A   Scattered Clouds
12:15 PM 66.2 °F 53.6 °F 64% 30.12 in 6.2 mi South 10.4 mph - N/A   Scattered Clouds
12:45 PM 66.2 °F 55.4 °F 68% 30.09 in 6.2 mi South 10.4 mph - N/A   Scattered Clouds
1:15 PM 64.4 °F 53.6 °F 68% 30.09 in 6.2 mi South 9.2 mph - N/A   Scattered Clouds
1:45 PM 66.2 °F 55.4 °F 68% 30.06 in 6.2 mi South 8.1 mph - N/A   Scattered Clouds
2:15 PM 64.4 °F 53.6 °F 68% 30.06 in 6.2 mi South 8.1 mph - N/A   Scattered Clouds
2:45 PM 64.4 °F 53.6 °F 68% 30.06 in 6.2 mi SSE 10.4 mph - N/A   Scattered Clouds
3:15 PM 64.4 °F 53.6 °F 68% 30.06 in 6.2 mi South 9.2 mph - N/A   Scattered Clouds
3:45 PM 62.6 °F 53.6 °F 72% 30.06 in 6.2 mi South 8.1 mph - N/A   Scattered Clouds
4:15 PM 62.6 °F 57.2 °F 82% 30.06 in 6.2 mi South 8.1 mph - N/A   Scattered Clouds
4:45 PM 62.6 °F 57.2 °F 82% 30.06 in 6.2 mi South 8.1 mph - N/A   Scattered Clouds
5:15 PM 60.8 °F 55.4 °F 82% 30.06 in 6.2 mi South 5.8 mph - N/A   Partly Cloudy
5:45 PM 59.0 °F 55.4 °F 88% 30.06 in 6.2 mi South 5.8 mph - N/A   Partly Cloudy
6:15 PM 57.2 °F 53.6 °F 88% 30.06 in 6.2 mi SE 1.2 mph - N/A   Partly Cloudy
6:45 PM 57.2 °F 53.6 °F 88% 30.06 in 6.2 mi Calm Calm - N/A   Partly Cloudy
7:15 PM 57.2 °F 55.4 °F 94% 30.09 in 6.2 mi East 3.5 mph - N/A   Partly Cloudy
7:45 PM 57.2 °F 55.4 °F 94% 30.09 in 6.2 mi ESE 6.9 mph - N/A   Partly Cloudy
8:15 PM 55.4 °F 53.6 °F 94% 30.09 in 6.2 mi East 3.5 mph 17.3 mph N/A   Partly Cloudy
8:45 PM 55.4 °F 53.6 °F 94% 30.09 in 6.2 mi ESE 2.3 mph - N/A   Partly Cloudy
9:15 PM 55.4 °F 53.6 °F 94% 30.09 in 6.2 mi Calm Calm - N/A   Partly Cloudy
9:45 PM 53.6 °F 51.8 °F 94% 30.09 in 6.2 mi Calm Calm - N/A   Partly Cloudy
10:15 PM 53.6 °F 51.8 °F 94% 30.09 in 6.2 mi Calm Calm - N/A   Partly Cloudy
10:45 PM 53.6 °F 51.8 °F 94% 30.09 in 6.2 mi Calm Calm - N/A   Partly Cloudy
11:15 PM 53.6 °F 51.8 °F 94% 30.09 in 6.2 mi ESE 1.2 mph - N/A   Partly Cloudy
11:45 PM 53.6 °F 51.8 °F 94% 30.09 in 6.2 mi Calm Calm - N/A   Partly Cloudy